| time (UTC) | temp C | wind direction | speed KPH | gust KPH | rain 1hr cm | rain 24hr cm | rain mn cm | humidity % | barometer mb |
| 20260902113534 | 12 | 233 | 0.0 | 0.0 | 0.00 | 0.00 | 0.00 | 71 | 984.7 |
| 20260902113033 | 12 | 233 | 0.0 | 0.0 | 0.00 | 0.00 | 0.00 | 71 | 984.7 |
| 20260902112534 | 12 | 233 | 0.0 | 0.0 | 0.00 | 0.00 | 0.00 | 71 | 984.6 |
| 20260902112036 | 12 | 233 | 0.0 | 0.0 | 0.00 | 0.00 | 0.00 | 71 | 984.6 |
| 20260902111534 | 12 | 233 | 0.0 | 0.0 | 0.00 | 0.00 | 0.00 | 70 | 984.7 |
| 20260902111032 | 12 | 233 | 0.0 | 0.0 | 0.00 | 0.00 | 0.00 | 70 | 984.7 |
| 20260902110531 | 12 | 233 | 0.0 | 0.0 | 0.00 | 0.00 | 0.00 | 70 | 984.6 |
| 20260902110042 | 12 | 233 | 0.0 | 0.0 | 0.00 | 0.00 | 0.00 | 71 | 984.5 |
| 20260902105530 | 12 | 233 | 0.0 | 0.0 | 0.00 | 0.00 | 0.00 | 71 | 984.6 |
| 20260902105030 | 12 | 233 | 0.0 | 0.0 | 0.00 | 0.00 | 0.00 | 70 | 984.6 |
| 20260902104537 | 12 | 233 | 0.0 | 0.0 | 0.00 | 0.00 | 0.00 | 71 | 984.6 |
| 20260902104029 | 12 | 233 | 0.0 | 0.0 | 0.00 | 0.00 | 0.00 | 70 | 984.7 |
| 20260902103528 | 12 | 233 | 0.0 | 0.0 | 0.00 | 0.00 | 0.00 | 70 | 984.7 |
| 20260902103034 | 12 | 233 | 0.0 | 0.0 | 0.00 | 0.00 | 0.00 | 70 | 984.7 |
| 20260902102528 | 12 | 233 | 0.0 | 0.0 | 0.00 | 0.00 | 0.00 | 70 | 984.7 |
| 20260902102028 | 12 | 233 | 0.0 | 0.0 | 0.00 | 0.00 | 0.00 | 70 | 984.6 |
| 20260902101528 | 13 | 233 | 0.0 | 0.0 | 0.00 | 0.00 | 0.00 | 70 | 984.7 |
| 20260902101027 | 13 | 233 | 0.0 | 0.0 | 0.00 | 0.00 | 0.00 | 70 | 984.7 |
| 20260902100530 | 13 | 233 | 0.0 | 0.0 | 0.00 | 0.00 | 0.00 | 71 | 984.7 |
| 20260902100027 | 13 | 233 | 0.0 | 0.0 | 0.00 | 0.00 | 0.00 | 71 | 984.7 |
| 20260902095528 | 13 | 233 | 0.0 | 0.0 | 0.00 | 0.00 | 0.00 | 71 | 984.7 |
| 20260902095026 | 13 | 233 | 0.0 | 3.2 | 0.00 | 0.00 | 0.00 | 71 | 984.6 |
| 20260902094526 | 12 | 233 | 0.0 | 4.8 | 0.00 | 0.00 | 0.00 | 70 | 984.6 |
| 20260902094033 | 13 | 233 | 3.2 | 4.8 | 0.00 | 0.00 | 0.00 | 70 | 984.7 |
| 20260902093526 | 13 | 233 | 3.2 | 4.8 | 0.00 | 0.00 | 0.00 | 70 | 984.7 |
| 20260902093035 | 13 | 233 | 0.0 | 3.2 | 0.00 | 0.00 | 0.00 | 70 | 984.6 |
| 20260902092525 | 13 | 233 | 0.0 | 1.6 | 0.00 | 0.00 | 0.00 | 70 | 984.5 |
| 20260902092024 | 13 | 233 | 0.0 | 3.2 | 0.00 | 0.00 | 0.00 | 70 | 984.5 |
| 20260902091527 | 13 | 233 | 1.6 | 3.2 | 0.00 | 0.00 | 0.00 | 70 | 984.5 |
| 20260902091024 | 13 | 233 | 1.6 | 3.2 | 0.00 | 0.00 | 0.00 | 70 | 984.4 |
| 20260902090523 | 13 | 233 | 1.6 | 3.2 | 0.00 | 0.00 | 0.00 | 70 | 984.4 |
| 20260902090023 | 13 | 233 | 1.6 | 4.8 | 0.00 | 0.00 | 0.00 | 70 | 984.4 |
| 20260902085523 | 13 | 233 | 3.2 | 4.8 | 0.00 | 0.00 | 0.00 | 70 | 984.4 |
| 20260902085023 | 13 | 233 | 1.6 | 3.2 | 0.00 | 0.00 | 0.00 | 70 | 984.4 |
| 20260902084525 | 13 | 233 | 1.6 | 3.2 | 0.00 | 0.00 | 0.00 | 70 | 984.4 |
| 20260902084023 | 13 | 233 | 0.0 | 3.2 | 0.00 | 0.00 | 0.00 | 70 | 984.4 |
| 20260902083522 | 13 | 233 | 0.0 | 3.2 | 0.00 | 0.00 | 0.00 | 70 | 984.4 |
| 20260902083033 | 13 | 233 | 1.6 | 3.2 | 0.00 | 0.00 | 0.00 | 70 | 984.4 |
| 20260902082522 | 13 | 233 | 1.6 | 3.2 | 0.00 | 0.00 | 0.00 | 70 | 984.6 |
| 20260902082021 | 13 | 233 | 0.0 | 0.0 | 0.00 | 0.00 | 0.00 | 70 | 984.5 |
| 20260902081526 | 12 | 233 | 0.0 | 0.0 | 0.00 | 0.00 | 0.00 | 70 | 984.4 |
| 20260902081020 | 12 | 233 | 0.0 | 1.6 | 0.00 | 0.00 | 0.00 | 70 | 984.4 |
| 20260902080520 | 12 | 233 | 0.0 | 1.6 | 0.00 | 0.00 | 0.00 | 70 | 984.3 |
| 20260902080026 | 13 | 233 | 0.0 | 0.0 | 0.00 | 0.00 | 0.00 | 69 | 984.4 |
| 20260902075517 | 13 | 233 | 0.0 | 0.0 | 0.00 | 0.00 | 0.00 | 69 | 984.4 |
| 20260902075019 | 13 | 233 | 0.0 | 0.0 | 0.00 | 0.00 | 0.00 | 70 | 984.4 |
| 20260902074517 | 13 | 233 | 0.0 | 0.0 | 0.00 | 0.00 | 0.00 | 70 | 984.4 |
| 20260902074018 | 13 | 233 | 0.0 | 3.2 | 0.00 | 0.00 | 0.00 | 70 | 984.4 |
| 20260902073517 | 13 | 233 | 0.0 | 4.8 | 0.00 | 0.00 | 0.00 | 70 | 984.3 |
| 20260902073028 | 13 | 233 | 3.2 | 4.8 | 0.00 | 0.00 | 0.00 | 70 | 984.4 |
| 20260902072516 | 13 | 233 | 3.2 | 4.8 | 0.00 | 0.00 | 0.00 | 70 | 984.4 |
| 20260902072017 | 13 | 233 | 0.0 | 3.2 | 0.00 | 0.00 | 0.00 | 70 | 984.4 |
| 20260902071518 | 13 | 233 | 0.0 | 0.0 | 0.00 | 0.00 | 0.00 | 70 | 984.4 |
| 20260902071016 | 13 | 233 | 0.0 | 0.0 | 0.00 | 0.00 | 0.00 | 70 | 984.5 |
| 20260902070515 | 13 | 233 | 0.0 | 0.0 | 0.00 | 0.00 | 0.00 | 70 | 984.4 |
| 20260902070015 | 13 | 233 | 0.0 | 3.2 | 0.00 | 0.00 | 0.00 | 70 | 984.4 |
| 20260902065514 | 13 | 233 | 0.0 | 3.2 | 0.00 | 0.00 | 0.00 | 70 | 984.3 |
| 20260902065014 | 13 | 233 | 1.6 | 4.8 | 0.00 | 0.00 | 0.00 | 70 | 984.3 |
| 20260902064515 | 13 | 233 | 3.2 | 4.8 | 0.00 | 0.00 | 0.00 | 70 | 984.3 |
| 20260902064014 | 13 | 233 | 1.6 | 4.8 | 0.00 | 0.00 | 0.00 | 70 | 984.3 |
| 20260902063515 | 13 | 233 | 1.6 | 3.2 | 0.00 | 0.00 | 0.00 | 70 | 984.2 |
| 20260902063016 | 13 | 233 | 0.0 | 3.2 | 0.00 | 0.00 | 0.00 | 70 | 984.3 |
| 20260902062512 | 13 | 233 | 1.6 | 3.2 | 0.00 | 0.00 | 0.00 | 70 | 984.3 |
| 20260902062011 | 13 | 233 | 1.6 | 3.2 | 0.00 | 0.00 | 0.00 | 70 | 984.3 |
| 20260902061513 | 13 | 233 | 1.6 | 6.4 | 0.00 | 0.00 | 0.00 | 70 | 984.2 |
| 20260902061019 | 13 | 233 | 3.2 | 6.4 | 0.00 | 0.00 | 0.00 | 70 | 984.2 |
| 20260902060510 | 13 | 244 | 3.2 | 6.4 | 0.00 | 0.00 | 0.00 | 70 | 984.1 |
| 20260902060010 | 13 | 244 | 3.2 | 6.4 | 0.00 | 0.00 | 0.00 | 70 | 984.1 |
| 20260902055509 | 13 | 269 | 4.8 | 6.4 | 0.00 | 0.00 | 0.00 | 70 | 984.1 |
| 20260902055009 | 13 | 269 | 3.2 | 4.8 | 0.00 | 0.00 | 0.00 | 70 | 984.1 |
| 20260902054520 | 13 | 269 | 1.6 | 3.2 | 0.00 | 0.00 | 0.00 | 70 | 984.1 |
| 20260902054007 | 13 | 269 | 0.0 | 4.8 | 0.00 | 0.00 | 0.00 | 69 | 984.0 |
| 20260902053507 | 13 | 269 | 3.2 | 4.8 | 0.00 | 0.00 | 0.00 | 69 | 983.9 |
| 20260902053008 | 13 | 269 | 1.6 | 4.8 | 0.00 | 0.00 | 0.00 | 69 | 983.8 |
| 20260902052507 | 13 | 273 | 0.0 | 3.2 | 0.00 | 0.00 | 0.00 | 70 | 983.8 |
| 20260902052004 | 13 | 273 | 0.0 | 1.6 | 0.00 | 0.00 | 0.00 | 70 | 983.9 |
| 20260902051507 | 13 | 273 | 0.0 | 1.6 | 0.00 | 0.00 | 0.00 | 69 | 983.9 |
| 20260902051004 | 13 | 273 | 0.0 | 0.0 | 0.00 | 0.00 | 0.00 | 69 | 983.9 |
| 20260902050503 | 13 | 273 | 0.0 | 0.0 | 0.00 | 0.00 | 0.00 | 69 | 983.9 |
| 20260902050004 | 13 | 273 | 0.0 | 0.0 | 0.00 | 0.00 | 0.00 | 69 | 983.9 |
| 20260902045502 | 13 | 273 | 0.0 | 0.0 | 0.00 | 0.00 | 0.00 | 69 | 983.9 |
| 20260902045001 | 13 | 273 | 0.0 | 3.2 | 0.00 | 0.00 | 0.00 | 69 | 983.9 |
| 20260902044502 | 14 | 273 | 0.0 | 3.2 | 0.00 | 0.00 | 0.00 | 69 | 983.9 |
| 20260902044002 | 14 | 257 | 0.0 | 0.0 | 0.00 | 0.00 | 0.00 | 69 | 983.9 |
| 20260902043501 | 14 | 257 | 0.0 | 0.0 | 0.00 | 0.00 | 0.00 | 69 | 984.0 |
| 20260902043001 | 14 | 257 | 0.0 | 0.0 | 0.00 | 0.00 | 0.00 | 69 | 984.0 |
| 20260902042501 | 15 | 257 | 0.0 | 0.0 | 0.00 | 0.00 | 0.00 | 69 | 984.0 |
| 20260902042001 | 15 | 257 | 0.0 | 0.0 | 0.00 | 0.00 | 0.00 | 69 | 984.0 |
| 20260902041610 | 14 | 257 | 0.0 | 1.6 | 0.00 | 0.00 | 0.00 | 69 | 984.0 |
| 20260902041059 | 14 | 257 | 0.0 | 3.2 | 0.00 | 0.00 | 0.00 | 69 | 984.0 |
| 20260902040559 | 14 | 257 | 0.0 | 3.2 | 0.00 | 0.00 | 0.00 | 69 | 983.9 |
| 20260902040103 | 14 | 257 | 0.0 | 1.6 | 0.00 | 0.00 | 0.00 | 68 | 983.9 |
| 20260902035559 | 14 | 257 | 0.0 | 3.2 | 0.00 | 0.00 | 0.00 | 68 | 983.9 |
| 20260902035058 | 14 | 257 | 0.0 | 3.2 | 0.00 | 0.00 | 0.00 | 67 | 983.9 |
| 20260902034559 | 14 | 257 | 0.0 | 4.8 | 0.00 | 0.00 | 0.00 | 66 | 983.8 |
| 20260902034100 | 15 | 257 | 1.6 | 4.8 | 0.00 | 0.00 | 0.00 | 66 | 983.9 |
| 20260902033557 | 15 | 257 | 3.2 | 4.8 | 0.00 | 0.00 | 0.00 | 66 | 983.9 |
| 20260902033101 | 15 | 343 | 0.0 | 0.0 | 0.00 | 0.00 | 0.00 | 65 | 983.8 |
| 20260902032601 | 15 | 343 | 0.0 | 3.2 | 0.00 | 0.00 | 0.00 | 65 | 983.8 |
| 20260902032056 | 15 | 343 | 1.6 | 3.2 | 0.00 | 0.00 | 0.00 | 66 | 983.8 |
| 20260902031556 | 15 | 344 | 0.0 | 0.0 | 0.00 | 0.00 | 0.00 | 63 | 983.7 |
| 20260902031056 | 15 | 344 | 0.0 | 0.0 | 0.00 | 0.00 | 0.00 | 61 | 983.7 |
| 20260902030559 | 15 | 344 | 0.0 | 0.0 | 0.00 | 0.00 | 0.00 | 61 | 983.7 |
| 20260902030055 | 15 | 344 | 0.0 | 0.0 | 0.00 | 0.00 | 0.00 | 60 | 983.6 |
| 20260902025555 | 15 | 344 | 0.0 | 0.0 | 0.00 | 0.00 | 0.00 | 59 | 983.5 |
| 20260902025054 | 16 | 344 | 0.0 | 0.0 | 0.00 | 0.00 | 0.00 | 60 | 983.5 |
| 20260902024553 | 16 | 344 | 0.0 | 0.0 | 0.00 | 0.00 | 0.00 | 60 | 983.4 |
| 20260902024053 | 16 | 344 | 0.0 | 0.0 | 0.00 | 0.00 | 0.00 | 59 | 983.3 |
| 20260902023553 | 16 | 344 | 0.0 | 0.0 | 0.00 | 0.00 | 0.00 | 59 | 983.3 |
| 20260902023053 | 16 | 344 | 0.0 | 0.0 | 0.00 | 0.00 | 0.00 | 59 | 983.3 |
| 20260902022554 | 16 | 344 | 0.0 | 0.0 | 0.00 | 0.00 | 0.00 | 58 | 983.3 |
| 20260902022052 | 16 | 344 | 0.0 | 0.0 | 0.00 | 0.00 | 0.00 | 57 | 983.4 |
| 20260902021555 | 16 | 344 | 0.0 | 0.0 | 0.00 | 0.00 | 0.00 | 57 | 983.4 |
| 20260902021053 | 16 | 344 | 0.0 | 0.0 | 0.00 | 0.00 | 0.00 | 56 | 983.4 |
| 20260902020552 | 17 | 344 | 0.0 | 0.0 | 0.00 | 0.00 | 0.00 | 56 | 983.4 |
| 20260902020052 | 17 | 344 | 0.0 | 0.0 | 0.00 | 0.00 | 0.00 | 55 | 983.3 |
| 20260902015551 | 17 | 344 | 0.0 | 0.0 | 0.00 | 0.00 | 0.00 | 56 | 983.3 |
| 20260902015051 | 17 | 344 | 0.0 | 0.0 | 0.00 | 0.00 | 0.00 | 55 | 983.2 |
| 20260902014553 | 17 | 344 | 0.0 | 0.0 | 0.00 | 0.00 | 0.00 | 55 | 983.2 |
| 20260902014053 | 17 | 344 | 0.0 | 0.0 | 0.00 | 0.00 | 0.00 | 55 | 983.2 |
| 20260902013549 | 17 | 344 | 0.0 | 0.0 | 0.00 | 0.00 | 0.00 | 55 | 983.1 |
| 20260902013049 | 17 | 343 | 0.0 | 0.0 | 0.00 | 0.00 | 0.00 | 54 | 983.1 |
| 20260902012548 | 18 | 343 | 0.0 | 0.0 | 0.00 | 0.00 | 0.00 | 54 | 983.1 |
| 20260902012048 | 18 | 344 | 0.0 | 0.0 | 0.00 | 0.00 | 0.00 | 54 | 983.0 |
| 20260902011549 | 18 | 344 | 0.0 | 0.0 | 0.00 | 0.00 | 0.00 | 53 | 982.9 |
| 20260902011048 | 18 | 343 | 0.0 | 0.0 | 0.00 | 0.00 | 0.00 | 53 | 982.9 |
| 20260902010547 | 19 | 343 | 0.0 | 0.0 | 0.00 | 0.00 | 0.00 | 53 | 982.9 |
| 20260902010048 | 19 | 343 | 0.0 | 0.0 | 0.00 | 0.00 | 0.00 | 52 | 982.9 |
| 20260902005550 | 20 | 343 | 0.0 | 0.0 | 0.00 | 0.00 | 0.00 | 52 | 983.0 |
| 20260902005050 | 20 | 343 | 0.0 | 0.0 | 0.00 | 0.00 | 0.00 | 52 | 983.0 |
| 20260902004548 | 20 | 343 | 0.0 | 0.0 | 0.00 | 0.00 | 0.00 | 51 | 983.0 |
| 20260902004047 | 20 | 343 | 0.0 | 0.0 | 0.00 | 0.00 | 0.00 | 51 | 982.9 |
| 20260902003549 | 20 | 343 | 0.0 | 0.0 | 0.00 | 0.00 | 0.00 | 51 | 982.9 |
| 20260902003054 | 20 | 343 | 0.0 | 0.0 | 0.00 | 0.00 | 0.00 | 50 | 982.9 |
| 20260902002549 | 20 | 343 | 0.0 | 0.0 | 0.00 | 0.00 | 0.00 | 50 | 982.9 |
| 20260902002046 | 20 | 343 | 0.0 | 0.0 | 0.00 | 0.00 | 0.00 | 50 | 982.9 |
| 20260902001547 | 20 | 343 | 0.0 | 0.0 | 0.00 | 0.00 | 0.00 | 50 | 982.9 |
| 20260902001046 | 20 | 343 | 0.0 | 0.0 | 0.00 | 0.00 | 0.00 | 50 | 982.9 |
| 20260902000546 | 20 | 343 | 0.0 | 4.8 | 0.00 | 0.00 | 0.00 | 50 | 982.9 |
| 20260902000111 | 20 | 343 | 0.0 | 6.4 | 0.00 | 0.00 | 0.00 | 50 | 983.0 |
| 20260901235547 | 20 | 343 | 3.2 | 6.4 | 0.00 | 0.05 | 0.00 | 49 | 982.9 |
| 20260901235045 | 20 | 340 | 3.2 | 6.4 | 0.00 | 0.05 | 0.00 | 49 | 982.9 |
| 20260901234545 | 20 | 341 | 1.6 | 6.4 | 0.00 | 0.05 | 0.00 | 49 | 983.0 |
| 20260901234045 | 20 | 360 | 1.6 | 9.7 | 0.00 | 0.05 | 0.00 | 49 | 982.9 |
| 20260901233544 | 20 | 335 | 4.8 | 9.7 | 0.00 | 0.05 | 0.00 | 48 | 982.8 |
| 20260901233044 | 21 | 292 | 3.2 | 8.0 | 0.00 | 0.05 | 0.00 | 49 | 982.8 |
| 20260901232545 | 21 | 308 | 3.2 | 9.7 | 0.00 | 0.05 | 0.00 | 48 | 982.9 |
| 20260901232045 | 21 | 360 | 4.8 | 9.7 | 0.00 | 0.05 | 0.00 | 48 | 982.8 |
| 20260901231549 | 21 | 296 | 3.2 | 8.0 | 0.00 | 0.05 | 0.00 | 48 | 982.9 |
| 20260901231045 | 21 | 355 | 4.8 | 12.9 | 0.00 | 0.05 | 0.00 | 48 | 982.8 |
| 20260901230543 | 21 | 343 | 6.4 | 12.9 | 0.00 | 0.05 | 0.00 | 46 | 982.8 |
| 20260901230043 | 21 | 339 | 4.8 | 12.9 | 0.00 | 0.05 | 0.00 | 47 | 982.7 |
| 20260901225543 | 21 | 360 | 6.4 | 12.9 | 0.00 | 0.05 | 0.00 | 46 | 982.7 |
| 20260901225042 | 21 | 308 | 6.4 | 12.9 | 0.00 | 0.05 | 0.00 | 46 | 982.8 |
| 20260901224542 | 21 | 360 | 4.8 | 12.9 | 0.00 | 0.05 | 0.00 | 46 | 982.8 |
| 20260901224042 | 21 | 296 | 6.4 | 12.9 | 0.00 | 0.05 | 0.00 | 46 | 982.8 |
| 20260901223542 | 21 | 360 | 4.8 | 8.0 | 0.00 | 0.05 | 0.00 | 47 | 982.6 |
| 20260901223042 | 21 | 346 | 3.2 | 9.7 | 0.00 | 0.05 | 0.00 | 47 | 982.7 |
| 20260901222543 | 21 | 350 | 4.8 | 12.9 | 0.00 | 0.05 | 0.00 | 46 | 982.7 |
| 20260901222041 | 21 | 349 | 4.8 | 12.9 | 0.00 | 0.05 | 0.00 | 47 | 982.6 |
| 20260901221541 | 21 | 360 | 6.4 | 11.3 | 0.00 | 0.05 | 0.00 | 47 | 982.7 |
| 20260901221041 | 21 | 270 | 4.8 | 9.7 | 0.00 | 0.05 | 0.00 | 46 | 982.6 |
| 20260901220541 | 21 | 348 | 4.8 | 8.0 | 0.00 | 0.05 | 0.00 | 46 | 982.7 |
| 20260901220106 | 21 | 300 | 1.6 | 9.7 | 0.00 | 0.05 | 0.00 | 46 | 982.6 |
| 20260901215540 | 21 | 300 | 4.8 | 9.7 | 0.00 | 0.05 | 0.00 | 46 | 982.6 |
| 20260901215040 | 21 | 306 | 3.2 | 8.0 | 0.00 | 0.05 | 0.00 | 46 | 982.5 |
| 20260901214539 | 21 | 5 | 0.0 | 9.7 | 0.00 | 0.05 | 0.00 | 46 | 982.5 |
| 20260901214039 | 21 | 35 | 4.8 | 14.5 | 0.00 | 0.05 | 0.00 | 46 | 982.6 |
| 20260901213540 | 21 | 345 | 4.8 | 14.5 | 0.00 | 0.05 | 0.00 | 46 | 982.6 |
| 20260901213105 | 21 | 9 | 6.4 | 14.5 | 0.00 | 0.05 | 0.00 | 45 | 982.5 |
| 20260901212539 | 21 | 360 | 8.0 | 14.5 | 0.00 | 0.05 | 0.00 | 45 | 982.6 |
| 20260901212038 | 21 | 360 | 3.2 | 9.7 | 0.00 | 0.05 | 0.00 | 46 | 982.6 |
| 20260901211538 | 21 | 338 | 4.8 | 16.1 | 0.00 | 0.05 | 0.00 | 46 | 982.5 |
| 20260901211037 | 21 | 360 | 8.0 | 16.1 | 0.00 | 0.05 | 0.00 | 45 | 982.4 |
| 20260901210537 | 21 | 360 | 6.4 | 16.1 | 0.00 | 0.05 | 0.00 | 45 | 982.3 |
| 20260901210047 | 21 | 294 | 9.7 | 16.1 | 0.00 | 0.05 | 0.00 | 45 | 982.4 |
| 20260901205538 | 21 | 304 | 6.4 | 12.9 | 0.00 | 0.05 | 0.00 | 44 | 982.3 |
| 20260901205038 | 21 | 342 | 8.0 | 17.7 | 0.00 | 0.05 | 0.00 | 44 | 982.4 |
| 20260901204539 | 21 | 290 | 9.7 | 19.3 | 0.00 | 0.05 | 0.00 | 43 | 982.2 |
| 20260901204039 | 21 | 307 | 11.3 | 19.3 | 0.00 | 0.05 | 0.00 | 43 | 982.2 |
| 20260901203537 | 21 | 294 | 12.9 | 19.3 | 0.00 | 0.05 | 0.00 | 43 | 982.2 |
| 20260901203052 | 21 | 360 | 11.3 | 19.3 | 0.00 | 0.05 | 0.00 | 43 | 982.3 |
| 20260901202535 | 21 | 269 | 8.0 | 17.7 | 0.00 | 0.05 | 0.00 | 46 | 982.2 |
| 20260901202041 | 21 | 269 | 11.3 | 17.7 | 0.00 | 0.05 | 0.00 | 46 | 982.2 |
| 20260901201534 | 21 | 272 | 6.4 | 16.1 | 0.00 | 0.05 | 0.00 | 46 | 982.3 |
| 20260901201034 | 21 | 242 | 6.4 | 16.1 | 0.00 | 0.05 | 0.00 | 46 | 982.3 |
| 20260901200535 | 21 | 277 | 8.0 | 20.9 | 0.00 | 0.05 | 0.00 | 45 | 982.4 |
| 20260901200034 | 21 | 293 | 11.3 | 20.9 | 0.00 | 0.05 | 0.00 | 45 | 982.2 |
| 20260901195533 | 21 | 285 | 11.3 | 22.5 | 0.00 | 0.05 | 0.00 | 45 | 982.3 |
| 20260901195034 | 21 | 279 | 11.3 | 22.5 | 0.00 | 0.05 | 0.00 | 44 | 982.3 |
| 20260901194540 | 21 | 360 | 9.7 | 17.7 | 0.00 | 0.05 | 0.00 | 45 | 982.2 |
| 20260901194032 | 21 | 360 | 9.7 | 16.1 | 0.00 | 0.05 | 0.00 | 44 | 982.2 |
| 20260901193532 | 21 | 277 | 8.0 | 20.9 | 0.00 | 0.05 | 0.00 | 45 | 982.3 |
| 20260901193037 | 21 | 267 | 12.9 | 20.9 | 0.00 | 0.05 | 0.00 | 43 | 982.2 |
| 20260901192531 | 21 | 281 | 9.7 | 19.3 | 0.00 | 0.05 | 0.00 | 44 | 982.3 |
| 20260901192030 | 20 | 248 | 9.7 | 19.3 | 0.00 | 0.05 | 0.00 | 44 | 982.3 |
| 20260901191534 | 20 | 270 | 12.9 | 20.9 | 0.00 | 0.05 | 0.00 | 45 | 982.3 |
| 20260901191033 | 20 | 271 | 11.3 | 25.7 | 0.00 | 0.05 | 0.00 | 45 | 982.3 |
| 20260901190529 | 20 | 252 | 14.5 | 25.7 | 0.00 | 0.05 | 0.00 | 45 | 982.4 |
| 20260901190030 | 20 | 360 | 11.3 | 22.5 | 0.00 | 0.05 | 0.00 | 45 | 982.4 |
| 20260901185529 | 20 | 247 | 14.5 | 22.5 | 0.00 | 0.05 | 0.00 | 45 | 982.4 |
| 20260901185029 | 20 | 246 | 12.9 | 22.5 | 0.00 | 0.05 | 0.00 | 45 | 982.4 |
| 20260901184532 | 20 | 360 | 12.9 | 19.3 | 0.00 | 0.05 | 0.00 | 46 | 982.3 |
| 20260901184028 | 20 | 270 | 9.7 | 27.4 | 0.00 | 0.05 | 0.00 | 46 | 982.3 |
| 20260901183529 | 20 | 282 | 12.9 | 27.4 | 0.00 | 0.05 | 0.00 | 45 | 982.3 |
| 20260901183038 | 20 | 360 | 16.1 | 22.5 | 0.00 | 0.05 | 0.00 | 46 | 982.4 |
| 20260901182526 | 20 | 360 | 12.9 | 22.5 | 0.00 | 0.05 | 0.00 | 46 | 982.3 |
| 20260901182026 | 20 | 277 | 16.1 | 29.0 | 0.00 | 0.05 | 0.00 | 45 | 982.2 |
| 20260901181526 | 20 | 290 | 14.5 | 29.0 | 0.00 | 0.05 | 0.00 | 45 | 982.2 |
| 20260901181023 | 20 | 290 | 14.5 | 24.1 | 0.00 | 0.05 | 0.00 | 48 | 982.2 |
| 20260901180527 | 20 | 263 | 14.5 | 20.9 | 0.00 | 0.05 | 0.00 | 47 | 982.2 |
| 20260901180022 | 19 | 360 | 12.9 | 22.5 | 0.00 | 0.05 | 0.00 | 48 | 982.1 |
| 20260901175523 | 19 | 277 | 14.5 | 25.7 | 0.00 | 0.05 | 0.00 | 47 | 982.3 |
| 20260901175020 | 19 | 243 | 17.7 | 25.7 | 0.00 | 0.05 | 0.00 | 47 | 982.3 |
| 20260901174520 | 19 | 249 | 16.1 | 25.7 | 0.00 | 0.05 | 0.00 | 47 | 982.3 |
| 20260901174021 | 19 | 300 | 14.5 | 22.5 | 0.00 | 0.05 | 0.00 | 47 | 982.4 |
| 20260901173522 | 19 | 306 | 16.1 | 24.1 | 0.00 | 0.05 | 0.00 | 48 | 982.4 |
| 20260901173031 | 19 | 234 | 12.9 | 24.1 | 0.00 | 0.05 | 0.00 | 48 | 982.3 |
| 20260901172520 | 18 | 227 | 16.1 | 24.1 | 0.00 | 0.05 | 0.00 | 48 | 982.3 |
| 20260901172020 | 18 | 245 | 14.5 | 24.1 | 0.00 | 0.05 | 0.00 | 49 | 982.4 |
| 20260901171520 | 18 | 246 | 14.5 | 25.7 | 0.00 | 0.05 | 0.00 | 49 | 982.4 |
| 20260901171021 | 18 | 286 | 17.7 | 29.0 | 0.00 | 0.05 | 0.00 | 49 | 982.3 |
| 20260901170518 | 18 | 288 | 17.7 | 29.0 | 0.00 | 0.05 | 0.00 | 49 | 982.3 |
| 20260901170018 | 18 | 244 | 14.5 | 24.1 | 0.00 | 0.05 | 0.00 | 49 | 982.2 |
| 20260901165517 | 18 | 254 | 14.5 | 24.1 | 0.00 | 0.05 | 0.00 | 49 | 982.2 |
| 20260901165017 | 18 | 281 | 11.3 | 25.7 | 0.00 | 0.05 | 0.00 | 49 | 982.2 |
| 20260901164519 | 18 | 360 | 12.9 | 25.7 | 0.00 | 0.05 | 0.00 | 48 | 982.1 |
| 20260901164017 | 18 | 253 | 12.9 | 20.9 | 0.00 | 0.05 | 0.00 | 48 | 982.1 |
| 20260901163517 | 18 | 360 | 14.5 | 20.9 | 0.00 | 0.05 | 0.00 | 48 | 982.1 |
| 20260901163017 | 18 | 232 | 11.3 | 20.9 | 0.00 | 0.05 | 0.00 | 48 | 982.0 |
| 20260901162517 | 18 | 360 | 9.7 | 17.7 | 0.00 | 0.05 | 0.00 | 48 | 982.2 |
| 20260901162016 | 18 | 247 | 9.7 | 19.3 | 0.00 | 0.05 | 0.00 | 48 | 981.9 |
| 20260901161516 | 18 | 277 | 11.3 | 22.5 | 0.00 | 0.05 | 0.00 | 47 | 982.0 |
| 20260901161016 | 18 | 307 | 11.3 | 22.5 | 0.00 | 0.05 | 0.00 | 47 | 981.9 |
| 20260901160515 | 18 | 283 | 9.7 | 22.5 | 0.00 | 0.05 | 0.00 | 48 | 981.8 |
| 20260901160015 | 18 | 275 | 14.5 | 22.5 | 0.00 | 0.05 | 0.00 | 47 | 981.9 |
| 20260901155515 | 19 | 261 | 14.5 | 22.5 | 0.00 | 0.05 | 0.00 | 47 | 981.9 |
| 20260901155014 | 19 | 360 | 14.5 | 22.5 | 0.00 | 0.05 | 0.00 | 47 | 981.7 |
| 20260901154513 | 19 | 260 | 11.3 | 24.1 | 0.00 | 0.05 | 0.00 | 48 | 981.6 |
| 20260901154013 | 19 | 264 | 11.3 | 32.2 | 0.00 | 0.05 | 0.00 | 46 | 981.7 |
| 20260901153513 | 19 | 271 | 12.9 | 32.2 | 0.00 | 0.05 | 0.00 | 48 | 981.5 |
| 20260901153012 | 19 | 272 | 14.5 | 25.7 | 0.00 | 0.05 | 0.00 | 47 | 981.5 |
| 20260901152510 | 19 | 254 | 16.1 | 25.7 | 0.00 | 0.05 | 0.00 | 47 | 981.3 |
| 20260901152008 | 18 | 268 | 14.5 | 27.4 | 0.00 | 0.05 | 0.00 | 47 | 981.5 |
| 20260901151510 | 18 | 277 | 14.5 | 27.4 | 0.00 | 0.05 | 0.00 | 48 | 981.4 |
| 20260901151005 | 18 | 360 | 14.5 | 27.4 | 0.00 | 0.05 | 0.00 | 48 | 981.3 |
| 20260901150504 | 18 | 243 | 16.1 | 24.1 | 0.00 | 0.05 | 0.00 | 48 | 981.2 |
| 20260901150003 | 18 | 262 | 14.5 | 24.1 | 0.00 | 0.05 | 0.00 | 49 | 981.2 |
| 20260901145501 | 18 | 241 | 11.3 | 27.4 | 0.00 | 0.05 | 0.00 | 49 | 981.2 |
| 20260901145002 | 18 | 304 | 14.5 | 29.0 | 0.00 | 0.05 | 0.00 | 49 | 981.2 |
| 20260901144601 | 18 | 248 | 17.7 | 29.0 | 0.00 | 0.05 | 0.00 | 49 | 981.1 |
| 20260901144058 | 18 | 360 | 17.7 | 27.4 | 0.00 | 0.05 | 0.00 | 49 | 981.0 |
| 20260901143557 | 18 | 269 | 16.1 | 29.0 | 0.00 | 0.05 | 0.00 | 49 | 980.9 |
| 20260901143056 | 18 | 248 | 19.3 | 25.7 | 0.00 | 0.05 | 0.00 | 49 | 981.0 |
| 20260901142554 | 17 | 360 | 17.7 | 30.6 | 0.00 | 0.05 | 0.00 | 49 | 980.8 |
| 20260901142052 | 17 | 284 | 20.9 | 30.6 | 0.00 | 0.05 | 0.00 | 50 | 980.8 |
| 20260901141552 | 17 | 263 | 14.5 | 25.7 | 0.00 | 0.05 | 0.00 | 51 | 980.7 |
| 20260901141050 | 17 | 237 | 16.1 | 24.1 | 0.00 | 0.05 | 0.00 | 51 | 980.7 |
| 20260901140548 | 17 | 360 | 12.9 | 24.1 | 0.00 | 0.05 | 0.00 | 52 | 980.5 |
| 20260901140058 | 17 | 272 | 12.9 | 22.5 | 0.00 | 0.05 | 0.00 | 52 | 980.6 |
| 20260901135545 | 17 | 243 | 14.5 | 22.5 | 0.00 | 0.05 | 0.00 | 52 | 980.4 |
| 20260901135044 | 17 | 360 | 14.5 | 22.5 | 0.00 | 0.05 | 0.00 | 53 | 980.3 |
| 20260901134604 | 16 | 360 | 14.5 | 22.5 | 0.00 | 0.05 | 0.00 | 53 | 980.1 |
| 20260901134044 | 16 | 244 | 12.9 | 22.5 | 0.00 | 0.05 | 0.00 | 53 | 980.1 |
| 20260901133542 | 16 | 293 | 12.9 | 22.5 | 0.00 | 0.05 | 0.00 | 54 | 980.0 |
| 20260901133046 | 16 | 243 | 14.5 | 24.1 | 0.00 | 0.05 | 0.00 | 55 | 980.0 |
| 20260901132540 | 16 | 276 | 16.1 | 22.5 | 0.00 | 0.05 | 0.00 | 55 | 980.1 |
| 20260901132042 | 16 | 244 | 16.1 | 24.1 | 0.00 | 0.05 | 0.00 | 57 | 980.1 |
| 20260901131539 | 16 | 275 | 14.5 | 24.1 | 0.00 | 0.05 | 0.00 | 58 | 980.0 |
| 20260901131038 | 15 | 236 | 12.9 | 24.1 | 0.00 | 0.05 | 0.00 | 58 | 980.1 |
| 20260901130535 | 15 | 228 | 14.5 | 27.4 | 0.00 | 0.05 | 0.00 | 59 | 980.2 |
| 20260901130040 | 15 | 240 | 12.9 | 27.4 | 0.00 | 0.05 | 0.00 | 61 | 980.2 |
| 20260901125535 | 15 | 239 | 14.5 | 24.1 | 0.00 | 0.05 | 0.00 | 62 | 980.1 |
| 20260901125033 | 15 | 234 | 12.9 | 20.9 | 0.00 | 0.05 | 0.00 | 62 | 980.0 |
| 20260901124533 | 15 | 239 | 11.3 | 25.7 | 0.00 | 0.05 | 0.00 | 63 | 979.9 |
| 20260901124035 | 15 | 236 | 16.1 | 25.7 | 0.00 | 0.05 | 0.00 | 64 | 979.9 |
| 20260901123533 | 14 | 235 | 12.9 | 19.3 | 0.00 | 0.05 | 0.00 | 64 | 979.8 |
| 20260901123034 | 14 | 245 | 9.7 | 17.7 | 0.00 | 0.05 | 0.00 | 64 | 979.8 |
| 20260901122532 | 14 | 232 | 11.3 | 17.7 | 0.00 | 0.05 | 0.00 | 64 | 979.7 |
| 20260901122033 | 14 | 228 | 9.7 | 14.5 | 0.00 | 0.05 | 0.00 | 64 | 979.6 |
| 20260901121530 | 14 | 247 | 8.0 | 16.1 | 0.00 | 0.05 | 0.00 | 64 | 979.5 |
| 20260901121031 | 14 | 242 | 9.7 | 14.5 | 0.00 | 0.05 | 0.00 | 64 | 979.4 |
| 20260901120528 | 14 | 244 | 8.0 | 14.5 | 0.00 | 0.05 | 0.00 | 64 | 979.5 |
| 20260901120047 | 14 | 360 | 8.0 | 14.5 | 0.00 | 0.05 | 0.00 | 64 | 979.4 |
| 20260901115528 | 14 | 254 | 6.4 | 12.9 | 0.00 | 0.05 | 0.00 | 64 | 979.3 |
| 20260901115032 | 14 | 360 | 4.8 | 16.1 | 0.00 | 0.05 | 0.00 | 64 | 979.1 |
| 20260901114528 | 14 | 242 | 8.0 | 16.1 | 0.00 | 0.05 | 0.00 | 64 | 979.2 |
| 20260901114027 | 14 | 227 | 8.0 | 12.9 | 0.00 | 0.05 | 0.00 | 64 | 979.2 |